Home   Weather   40°43'N, 74°00'W   Past weeks
Flag for USA

Past Weather in 40°43'N, 74°00'W, USA — Yesterday and Last 2 Weeks

Now
60 °F

Clear.


Feels Like: 60 °F
Forecast: 64 / 52 °F
Wind: No wind

Location: New York City - Central Park

Current Time: Oct 21, 2019 at 7:15:42 pm

Latest Report: Oct 21, 2019 at 6:51 pm


Visibility: 10 mi

Pressure: 30.09 "Hg

Humidity: 67%

Dew Point: 49 °F

Location of 40°43'N, 74°00'WLocation

Past Weather in 40°43'N, 74°00'W — Graph

°F

40°43'N, 74°00'W Temperature Yesterday

Maximum temperature yesterday: 58 °F (at 11:51 am)
Minimum temperature yesterday: 50 °F (at 5:51 am)
Average temperature yesterday: 54 °F

High & Low Weather Summary for the Past Weeks

 TemperatureHumidityPressure
High78 °F (Oct 7, 2:51 pm)97% (Oct 16, 6:51 pm)30.33 "Hg (Oct 16, 6:51 pm)
Low44 °F (Oct 19, 5:51 am)26% (Oct 10, 7:51 pm)29.13 "Hg (Oct 16, 9:51 pm)
Average58 °F66%30.03 "Hg
* Reported Oct 6 5:51 pm — Oct 21 5:51 pm, 40°43'N, 74°00'W. Weather by CustomWeather, © 2019

Note: Actual official high and low records may vary slightly from our data, if they occured in-between our weather recording intervals... More about our weather records

Advertising

40°43'N, 74°00'W Weather History for the Previous 24 Hours

Scroll right to see more
 ConditionsComfort  
Time TempWeatherWind HumidityBarometerVisibility
5:51 pm
Mon, Oct 21
62 °FSunny.6 mph52%30.08 "Hg10 mi
4:51 pm64 °FSunny.3 mph47%30.07 "Hg10 mi
3:51 pm65 °FSunny.3 mph45%30.06 "Hg10 mi
2:51 pm66 °FSunny.3 mph49%30.04 "Hg10 mi
1:51 pm66 °FSunny.3 mph47%30.05 "Hg10 mi
12:51 pm64 °FSunny.6 mph52%30.06 "Hg10 mi
11:51 am62 °FSunny.6 mph56%30.06 "Hg10 mi
10:51 am58 °FSunny.5 mph62%30.07 "Hg10 mi
9:51 am56 °FSunny.6 mph67%30.06 "Hg10 mi
8:51 am54 °FSunny.7 mph72%30.06 "Hg10 mi
7:51 am52 °FSunny.3 mph77%30.05 "Hg10 mi
6:51 am52 °FClear.8 mph80%30.03 "Hg10 mi
5:51 am52 °FClear.No wind83%30.01 "Hg10 mi
4:51 am52 °FClear.3 mph83%29.99 "Hg10 mi
3:51 am53 °FOvercast.5 mph80%29.98 "Hg10 mi
3:10 am53 °FMostly cloudy.7 mph83%30.00 "Hg10 mi
2:51 am52 °FMostly cloudy.7 mph89%29.98 "Hg10 mi
2:35 am52 °FPassing clouds.3 mph86%30.01 "Hg10 mi
2:16 am52 °FPassing clouds.6 mph89%30.00 "Hg10 mi
1:51 am52 °FPassing clouds.9 mph89%29.97 "Hg10 mi
1:34 am52 °FMostly cloudy.5 mph89%30.01 "Hg10 mi
12:51 am52 °FLight rain. Overcast.10 mph89%29.96 "Hg10 mi
11:51 pm
Sun, Oct 20
52 °FOvercast.8 mph89%29.99 "Hg10 mi
11:15 pm51 °FOvercast.12 mph92%30.01 "Hg10 mi
10:51 pm52 °FOvercast.9 mph93%29.98 "Hg10 mi
10:24 pm53 °FLow clouds.9 mph93%30.01 "Hg9 mi
9:51 pm52 °FOvercast.6 mph97%29.99 "Hg9 mi
9:32 pm52 °FLight rain. Fog.9 mph97%30.02 "Hg6 mi
9:05 pm52 °FLight rain. Fog.7 mph93%30.02 "Hg5 mi
8:51 pm52 °FLight rain. Mostly cloudy.7 mph93%29.99 "Hg7 mi
7:51 pm53 °FMostly cloudy.7 mph96%29.99 "Hg7 mi
7:34 pm53 °FMostly cloudy.6 mph96%30.01 "Hg9 mi
Weather by CustomWeather, © 2019

See weather overview